TimeHST,TemperatureF,Dew PointF,Humidity,Sea Level PressureIn,VisibilityMPH,Wind Direction,Wind SpeedMPH,Gust SpeedMPH,PrecipitationIn,Events,Conditions,WindDirDegrees,DateUTC
12:53 AM,64.9,61.0,87,30.07,10.0,SW,4.6,-,N/A,,Overcast,230,2013-03-14 10:53:00
1:53 AM,64.9,62.1,90,30.04,10.0,SW,4.6,-,N/A,,Partly Cloudy,230,2013-03-14 11:53:00
2:53 AM,64.9,60.1,84,30.02,10.0,SW,3.5,-,N/A,,Partly Cloudy,230,2013-03-14 12:53:00
3:09 AM,64.0,60.1,87,30.02,10.0,SW,5.8,-,N/A,,Mostly Cloudy,230,2013-03-14 13:09:00
3:53 AM,64.0,60.1,87,30.01,10.0,WSW,5.8,-,N/A,,Overcast,240,2013-03-14 13:53:00
4:53 AM,64.0,59.0,84,30.02,10.0,WSW,6.9,-,N/A,,Scattered Clouds,240,2013-03-14 14:53:00
5:15 AM,64.9,59.0,81,30.03,10.0,WSW,8.1,-,N/A,,Mostly Cloudy,240,2013-03-14 15:15:00
5:53 AM,64.9,59.0,81,30.04,10.0,WSW,6.9,-,N/A,,Overcast,240,2013-03-14 15:53:00
6:53 AM,64.0,57.9,80,30.07,10.0,SW,8.1,-,N/A,,Scattered Clouds,220,2013-03-14 16:53:00
7:53 AM,68.0,57.9,70,30.08,6.0,WSW,6.9,-,N/A,,Haze,250,2013-03-14 17:53:00
8:53 AM,73.0,60.1,64,30.09,10.0,SE,3.5,-,N/A,,Scattered Clouds,140,2013-03-14 18:53:00
9:53 AM,77.0,62.1,60,30.08,10.0,Variable,3.5,-,N/A,,Mostly Cloudy,0,2013-03-14 19:53:00
10:53 AM,78.1,63.0,60,30.05,10.0,ESE,10.4,-,N/A,,Mostly Cloudy,120,2013-03-14 20:53:00
11:53 AM,78.1,64.0,62,30.04,10.0,East,13.8,-,N/A,,Overcast,100,2013-03-14 21:53:00
12:53 PM,78.1,64.9,64,30.02,10.0,East,12.7,-,N/A,,Mostly Cloudy,100,2013-03-14 22:53:00
1:40 PM,77.0,64.9,66,30.01,10.0,East,10.4,-,N/A,,Overcast,100,2013-03-14 23:40:00
1:53 PM,75.9,64.9,69,30.01,10.0,East,10.4,-,N/A,,Overcast,100,2013-03-14 23:53:00
2:04 PM,75.9,64.9,69,30.01,10.0,East,10.4,-,N/A,,Overcast,90,2013-03-15 00:04:00
2:53 PM,73.9,64.9,73,29.98,10.0,East,12.7,-,0.00,,Overcast,90,2013-03-15 00:53:00
3:53 PM,73.9,66.9,79,29.98,10.0,East,12.7,-,0.00,Rain,Light Rain,90,2013-03-15 01:53:00
4:53 PM,73.0,66.0,79,29.99,10.0,East,5.8,-,0.00,Rain,Light Rain,90,2013-03-15 02:53:00
5:53 PM,73.0,68.0,84,30.00,10.0,South,3.5,-,0.00,Rain,Light Rain,190,2013-03-15 03:53:00
6:07 PM,73.0,68.0,84,30.01,10.0,South,5.8,-,0.00,Rain,Light Rain,190,2013-03-15 04:07:00
6:38 PM,73.0,68.0,84,30.01,10.0,SSW,3.5,-,0.00,,Mostly Cloudy,200,2013-03-15 04:38:00
6:53 PM,73.0,68.0,84,30.01,10.0,South,5.8,-,0.00,,Overcast,190,2013-03-15 04:53:00
7:53 PM,-9999,-9999,N/A,30.03,10.0,SW,5.8,-,0.00,,Overcast,230,2013-03-15 05:53:00
8:53 PM,70.0,68.0,93,30.03,10.0,SSW,4.6,-,0.00,,Overcast,210,2013-03-15 06:53:00
9:53 PM,70.0,68.0,93,30.03,10.0,Calm,Calm,-,N/A,,Overcast,0,2013-03-15 07:53:00
10:43 PM,70.0,66.0,87,30.02,10.0,SW,3.5,-,N/A,,Mostly Cloudy,230,2013-03-15 08:43:00
10:53 PM,70.0,66.0,87,30.02,10.0,SSW,4.6,-,N/A,,Partly Cloudy,210,2013-03-15 08:53:00
11:53 PM,-9999,-9999,N/A,30.01,10.0,WSW,4.6,-,N/A,,Mostly Cloudy,240,2013-03-15 09:53:00